[[{"header":{"parameterUnit":"m.s-1","parameterCategory":1,"la1":30.2991,"la2":30.254,"lo1":-89.0895,"lo2":-89.0444,"dy":0.0017,"dx":0.0017,"nx":28,"ny":28,"refTime":"2023-09-17T03:00:00:Z","depth":0,"parameterNumber":2,"parameterNumberName":"U-component_of_WINDS"},"data":[0,0,0,0,0,0,0,0,0,0,0,0,0,0,0,0,0,0,0,0,0,0,0,0,0,0,0,0,0,0,0,0,0,0,0,0,0,0,0,0,0,0,0,0,0,0,0,0,0,0,0,0,0,0,0,0,0,0,-1.8819,-1.8819,0,-1.8845,-1.8845,-1.8845,-1.8771,-1.8769,-1.8766,-1.8764,-1.8791,-1.8794,-1.8797,0,0,0,0,0,0,0,0,0,0,0,0,0,-1.8704,-1.8707,-1.8819,-1.8819,-1.8819,-1.8845,-1.8845,-1.8845,-1.8771,-1.8769,-1.8766,-1.8763,-1.879,-1.8794,-1.8797,0,0,0,0,0,0,0,0,0,0,0,0,0,-1.8745,-1.8708,-1.8819,-1.8785,-1.8783,-1.8844,-1.8845,-1.8845,-1.8772,-1.8769,-1.8765,-1.8762,-1.8789,-1.8793,-1.8798,-1.8893,0,0,-1.8811,-1.8812,0,0,0,0,0,0,0,0,-1.8742,-1.8749,-1.879,-1.8788,-1.8785,-1.8801,-1.8814,-1.8861,-1.8773,-1.8776,-1.8764,-1.876,-1.8797,-1.8801,-1.8813,-1.8894,-1.8895,-1.8811,-1.8814,-1.8815,-1.8817,0,0,0,0,0,0,0,-1.874,-1.8747,-1.8829,-1.8791,-1.8788,-1.8769,-1.8771,-1.8823,-1.8806,-1.8776,-1.877,-1.8774,-1.8795,-1.8809,-1.8813,-1.8895,-1.8811,-1.8815,-1.8817,-1.8819,-1.9055,-1.9058,0,0,0,0,0,0,-1.8741,-1.8746,-1.8828,-1.883,-1.8755,-1.8774,-1.8776,-1.8799,-1.8805,-1.8802,-1.8777,-1.8771,-1.8804,-1.8808,-1.8814,-1.8926,-1.8815,-1.8819,-1.8822,-1.9051,-1.9055,-1.9059,0,0,0,0,0,0,-1.8739,-1.8749,-1.8827,-1.8786,-1.8795,-1.878,-1.8806,-1.8802,-1.8816,-1.8806,-1.8803,-1.8795,-1.8801,-1.8808,-1.8873,-1.8926,-1.8821,-1.8825,-1.9047,-1.9052,-1.9057,-1.915,0,0,0,0,0,0,-1.8736,-1.8749,-1.8785,-1.8788,-1.8797,-1.8887,-1.8809,-1.8805,-1.8823,-1.8815,-1.8822,-1.8819,-1.8799,-1.8867,-1.8878,-1.893,-1.8829,-1.9042,-1.9049,-1.9056,-1.9143,-1.9158,-1.9172,0,0,0,0,0,-1.8732,-1.8811,-1.8788,-1.8798,-1.8842,-1.889,-1.8895,-1.887,-1.8828,-1.8864,-1.8857,-1.8819,-1.8918,-1.8875,-1.8886,-1.894,-1.9039,-1.9047,-1.9055,-1.9136,-1.9155,-1.9172,0,0,0,0,0,0,-1.8816,-1.881,-1.8785,-1.8866,-1.8879,-1.8877,-1.8923,-1.8891,-1.8917,-1.8908,-1.8875,-1.8877,-1.8949,-1.895,-1.8903,-1.9032,-1.8971,-1.8982,-1.9029,-1.9047,-1.9061,-1.906,-1.8832,0,0,0,0,0,-1.8843,-1.8883,-1.8876,-1.8948,-1.8956,-1.8938,-1.8958,-1.8937,-1.8949,-1.8954,-1.8953,-1.8966,-1.9,-1.9023,-1.9053,-1.9141,-1.9142,-1.9184,-1.9198,-1.9211,-1.9221,-1.9268,-1.9286,-1.9087,-1.9087,-1.9087,0,0,-1.8901,-1.8903,-1.893,-1.8965,-1.8972,-1.9014,-1.8943,-1.899,-1.9021,-1.8961,-1.9024,-1.9023,-1.9035,-1.9113,-1.9146,-1.9116,-1.9276,-1.9221,-1.9231,-1.9235,-1.9278,-1.9297,-1.9314,-1.9092,-1.9091,-1.9091,0,0,-1.9029,-1.9034,-1.9095,-1.9103,-1.9115,-1.9103,-1.9117,-1.912,-1.9117,-1.9179,-1.9135,-1.917,-1.9229,-1.924,-1.9253,-1.9382,-1.9348,-1.9393,-1.947,-1.9516,-1.9532,-1.9546,-1.9593,-1.961,-1.9403,-1.9403,-1.9403,0,-1.91,-1.916,-1.913,-1.918,-1.9197,-1.9144,-1.9205,-1.9215,-1.9237,-1.9249,-1.9214,-1.9286,-1.9291,-1.937,-1.9402,-1.9414,-1.9429,-1.9393,-1.9532,-1.9546,-1.9558,-1.9603,-1.962,-1.9409,-1.9408,-1.9407,-1.9407,0,-1.9247,-1.929,-1.9337,-1.936,-1.9381,-1.9436,-1.9414,-1.944,-1.9416,-1.9407,-1.947,-1.9473,-1.9504,-1.952,-1.9498,-1.9596,-1.9577,-1.9538,-1.9476,-1.9583,-1.9624,-1.9641,-1.9416,-1.9414,-1.9413,-1.9411,0,0,-1.943,-1.9433,-1.9452,-1.9461,-1.9469,-1.9501,-1.9554,-1.9583,-1.9606,-1.9621,-1.9665,-1.9715,-1.9678,-1.9693,-1.9671,-1.9711,-1.9814,-1.9667,-1.9667,-1.9695,-1.9923,-1.9954,-1.9974,-1.9791,-1.9794,-1.9796,-1.9923,0,-1.9557,-1.9647,-1.9621,-1.9711,-1.975,-1.97,-1.9745,-1.9755,-1.9748,-1.9779,-1.977,-1.9807,-1.9755,-1.9764,-1.9801,-1.9794,-1.986,-1.9784,-1.9832,-1.9834,-1.9832,-1.9996,-2.0029,-2.0148,-1.9938,-1.9941,-1.9943,0,-1.9717,-1.9739,-1.9834,-1.9835,-1.985,-1.9892,-1.9916,-1.9947,-1.9956,-1.9948,-1.9964,-1.9933,-1.9985,-1.9921,-1.9991,-1.9941,-1.9958,-1.9957,-1.9961,-1.9966,-1.9896,-2.0007,-2.0185,-2.0204,-1.9968,-1.9966,-1.9964,0,-1.9843,-1.9895,-1.9959,-1.9968,-1.9971,-2.0001,-2.0004,-2.001,-2.0029,-2.0049,-2.0061,-2.0088,-2.0103,-2.0124,-2.0101,-2.0057,-2.0175,-2.011,-2.017,-2.0171,-2.0199,-2.0198,-2.0385,-2.0207,-2.0207,-2.0207,-2.0206,0,-1.9988,-2.0048,-2.0015,-2.0055,-2.0121,-2.0089,-2.0154,-2.0151,-2.0157,-2.0194,-2.0151,-2.0187,-2.0154,-2.0187,-2.0169,-2.023,-2.0237,-2.0232,-2.0227,-2.0237,-2.0238,-2.0249,-2.0241,-2.0212,-2.0211,-2.021,-2.0209,0,-2.0141,-2.0121,-2.0187,-2.0183,-2.0184,-2.0233,-2.0229,-2.0265,-2.0253,-2.0302,-2.0311,-2.0293,-2.0329,-2.0308,-2.0345,-2.0333,-2.0413,-2.0396,-2.041,-2.0406,-2.0468,-2.0463,-2.067,-2.0696,-2.0501,-2.0503,-2.0504,0,-2.0236,-2.0281,-2.0282,-2.0304,-2.0309,-2.0345,-2.0363,-2.0333,-2.0354,-2.0368,-2.0402,-2.0435,-2.046,-2.052,-2.051,-2.0538,-2.0522,-2.0593,-2.0526,-2.0535,-2.0525,-2.0523,-2.0528,-2.0607,-2.0609,-2.0611,-2.0613,0,-2.0407,-2.0394,-2.0423,-2.0449,-2.0472,-2.0491,-2.0506,-2.0526,-2.0495,-2.0521,-2.0558,-2.0577,-2.0614,-2.0648,-2.0671,-2.0673,-2.0639,-2.0633,-2.0649,-2.0661,-2.0668,-2.0666,-2.0448,-2.0629,-2.0628,-2.0626,-2.0625,-2.0625,-2.0534,-2.0572,-2.0578,-2.0612,-2.0619,-2.0634,-2.0668,-2.066,-2.069,-2.0718,-2.0697,-2.0741,-2.0748,-2.0776,-2.0782,-2.0815,-2.0787,-2.0809,-2.0815,-2.0822,-2.0831,-2.0661,-2.0819,-2.0819,-2.0818,-2.0818,-2.0817,0,-2.0704,-2.0705,-2.0736,-2.0758,-2.0784,-2.0748,-2.0762,-2.0786,-2.0825,-2.0835,-2.0859,-2.0901,-2.0932,-2.0924,-2.0952,-2.098,-2.0965,-2.0989,-2.0988,-2.0989,-2.0854,-2.0839,-2.1001,-2.1001,-2.1001,-2.1001,-2.1001,-2.1001,-2.0796,-2.0858,-2.0846,-2.0911,-2.0911,-2.0953,-2.0965,-2.0978,-2.0985,-2.1034,-2.1059,-2.1053,-2.1056,-2.1083,-2.111,-2.1107,-2.112,-2.115,-2.1141,-2.1016,-2.0998,-2.0981,-2.0966,-2.1153,-2.1153,-2.1273,-2.1274,-2.1275]},{"header":{"parameterUnit":"m.s-1","parameterCategory":1,"la1":30.2991,"la2":30.254,"lo1":-89.0895,"lo2":-89.0444,"dy":0.0017,"dx":0.0017,"nx":28,"ny":28,"refTime":"2023-09-17T03:00:00:Z","depth":0,"parameterNumber":3,"parameterNumberName":"V-component_of_WINDS"},"data":[0,0,0,0,0,0,0,0,0,0,0,0,0,0,0,0,0,0,0,0,0,0,0,0,0,0,0,0,0,0,0,0,0,0,0,0,0,0,0,0,0,0,0,0,0,0,0,0,0,0,0,0,0,0,0,0,0,0,-4.2113,-4.2114,0,-4.2231,-4.2233,-4.2234,-4.2182,-4.2179,-4.2176,-4.2173,-4.2293,-4.2298,-4.2304,0,0,0,0,0,0,0,0,0,0,0,0,0,-4.1839,-4.1844,-4.2113,-4.2114,-4.2116,-4.2231,-4.2233,-4.2234,-4.2182,-4.2179,-4.2175,-4.2172,-4.2291,-4.2298,-4.2305,0,0,0,0,0,0,0,0,0,0,0,0,0,-4.1957,-4.1846,-4.2112,-4.2104,-4.2104,-4.2231,-4.2233,-4.2235,-4.2183,-4.2179,-4.2174,-4.217,-4.2289,-4.2297,-4.2306,-4.2448,0,0,-4.2333,-4.2337,0,0,0,0,0,0,0,0,-4.1951,-4.1968,-4.2103,-4.2104,-4.2105,-4.2187,-4.218,-4.2306,-4.2184,-4.2153,-4.2173,-4.2168,-4.2261,-4.2272,-4.2304,-4.2453,-4.2458,-4.2334,-4.2339,-4.2343,-4.2345,0,0,0,0,0,0,0,-4.1943,-4.1962,-4.2159,-4.2105,-4.2107,-4.2093,-4.2105,-4.2204,-4.223,-4.2155,-4.2152,-4.2167,-4.2261,-4.2295,-4.2306,-4.246,-4.2333,-4.2341,-4.2347,-4.235,-4.2732,-4.2736,0,0,0,0,0,0,-4.1935,-4.1956,-4.2156,-4.2163,-4.2016,-4.2101,-4.2115,-4.2165,-4.2229,-4.2234,-4.217,-4.2164,-4.2282,-4.2296,-4.231,-4.2481,-4.2343,-4.2351,-4.2356,-4.2727,-4.2733,-4.2738,0,0,0,0,0,0,-4.1929,-4.1953,-4.2151,-4.2059,-4.2083,-4.2111,-4.2168,-4.217,-4.2205,-4.224,-4.2244,-4.2201,-4.2279,-4.2298,-4.2414,-4.2484,-4.2355,-4.2363,-4.2721,-4.2729,-4.2735,-4.2822,0,0,0,0,0,0,-4.1921,-4.1951,-4.2006,-4.206,-4.2088,-4.2254,-4.2172,-4.2175,-4.222,-4.2213,-4.227,-4.2275,-4.2277,-4.2401,-4.2423,-4.2494,-4.237,-4.2715,-4.2725,-4.2733,-4.2813,-4.2832,-4.2847,0,0,0,0,0,-4.1912,-4.2026,-4.2009,-4.2034,-4.2157,-4.2258,-4.2274,-4.2274,-4.2226,-4.2281,-4.2304,-4.2273,-4.2473,-4.2413,-4.2437,-4.2512,-4.2711,-4.2722,-4.2733,-4.2806,-4.2828,-4.2847,0,0,0,0,0,0,-4.1978,-4.2032,-4.2015,-4.215,-4.22,-4.2249,-4.2318,-4.2298,-4.2362,-4.2353,-4.235,-4.2363,-4.2484,-4.2509,-4.2442,-4.2653,-4.2584,-4.26,-4.2632,-4.2653,-4.267,-4.2661,-4.2377,0,0,0,0,0,-4.2009,-4.2087,-4.213,-4.2244,-4.227,-4.229,-4.2334,-4.233,-4.2382,-4.2403,-4.2434,-4.2484,-4.2558,-4.2607,-4.2677,-4.2817,-4.2828,-4.288,-4.2897,-4.291,-4.2925,-4.3,-4.3024,-4.2774,-4.2774,-4.2774,0,0,-4.2072,-4.2111,-4.2161,-4.2259,-4.2297,-4.2377,-4.2308,-4.2396,-4.2456,-4.2416,-4.2528,-4.2553,-4.2609,-4.2737,-4.2796,-4.2762,-4.2996,-4.2924,-4.2935,-4.2942,-4.3014,-4.3038,-4.3059,-4.2781,-4.278,-4.2779,0,0,-4.2229,-4.2267,-4.2367,-4.2407,-4.2466,-4.2478,-4.2502,-4.2555,-4.257,-4.2682,-4.2654,-4.2724,-4.2851,-4.2893,-4.293,-4.3103,-4.3077,-4.3125,-4.3214,-4.3288,-4.3308,-4.3326,-4.3387,-4.3409,-4.3139,-4.314,-4.314,0,-4.23,-4.2421,-4.242,-4.2511,-4.2555,-4.2522,-4.2623,-4.2662,-4.274,-4.2771,-4.2733,-4.2892,-4.2927,-4.3065,-4.3108,-4.3139,-4.3166,-4.3119,-4.3305,-4.3323,-4.3339,-4.3398,-4.3421,-4.3145,-4.3144,-4.3144,-4.3143,0,-4.2506,-4.259,-4.2664,-4.2742,-4.2793,-4.2889,-4.2901,-4.2954,-4.2945,-4.2961,-4.3076,-4.3118,-4.3195,-4.3228,-4.322,-4.3365,-4.3342,-4.3305,-4.3236,-4.3369,-4.3424,-4.3446,-4.3153,-4.3151,-4.3149,-4.3148,0,0,-4.2709,-4.2785,-4.2812,-4.2847,-4.291,-4.2974,-4.3067,-4.3144,-4.3189,-4.3245,-4.3323,-4.3431,-4.3397,-4.344,-4.3436,-4.3501,-4.3635,-4.3456,-4.3457,-4.3488,-4.3798,-4.3826,-4.3852,-4.3619,-4.3623,-4.3626,-4.3793,0,-4.2871,-4.3035,-4.3037,-4.3188,-4.3266,-4.3236,-4.3318,-4.3365,-4.3382,-4.345,-4.3469,-4.3546,-4.3495,-4.3521,-4.3583,-4.3606,-4.3698,-4.3594,-4.3691,-4.3695,-4.3679,-4.3881,-4.3911,-4.4066,-4.3814,-4.3818,-4.3821,0,-4.3082,-4.3145,-4.3304,-4.3356,-4.3388,-4.3462,-4.3532,-4.3597,-4.365,-4.3658,-4.3706,-4.3693,-4.3787,-4.3715,-4.3845,-4.3774,-4.3814,-4.3831,-4.3837,-4.3847,-4.3766,-4.3896,-4.4116,-4.4139,-4.3855,-4.3852,-4.385,0,-4.3214,-4.3338,-4.345,-4.3481,-4.3544,-4.3596,-4.3624,-4.3672,-4.3718,-4.378,-4.3809,-4.3881,-4.392,-4.3975,-4.3981,-4.3928,-4.4112,-4.404,-4.4121,-4.4121,-4.4162,-4.4159,-4.4391,-4.4187,-4.4186,-4.4186,-4.4185,0,-4.3395,-4.3494,-4.351,-4.3579,-4.3688,-4.3689,-4.3797,-4.3821,-4.3864,-4.3936,-4.3914,-4.3982,-4.3986,-4.4056,-4.4061,-4.4168,-4.4186,-4.4195,-4.4195,-4.4197,-4.4196,-4.4223,-4.4213,-4.4192,-4.4191,-4.4189,-4.4188,0,-4.3561,-4.3576,-4.3696,-4.3746,-4.3761,-4.384,-4.3882,-4.3947,-4.3962,-4.4054,-4.4075,-4.4099,-4.418,-4.4192,-4.4286,-4.429,-4.4418,-4.4407,-4.4401,-4.44,-4.448,-4.4473,-4.4738,-4.4773,-4.4545,-4.4547,-4.4549,0,-4.3676,-4.3752,-4.381,-4.3857,-4.3889,-4.3965,-4.4012,-4.4015,-4.4065,-4.413,-4.4187,-4.4266,-4.433,-4.446,-4.4486,-4.4558,-4.4548,-4.4636,-4.4559,-4.4559,-4.455,-4.4546,-4.4553,-4.4651,-4.4654,-4.4656,-4.4658,0,-4.3878,-4.3882,-4.3951,-4.4024,-4.4081,-4.4137,-4.4191,-4.423,-4.424,-4.4297,-4.438,-4.4429,-4.4526,-4.4604,-4.4676,-4.4704,-4.4683,-4.4682,-4.4704,-4.4708,-4.4701,-4.4706,-4.4443,-4.4676,-4.4674,-4.4673,-4.4672,-4.4671,-4.4023,-4.4088,-4.414,-4.4218,-4.4258,-4.4309,-4.4373,-4.4396,-4.4466,-4.4545,-4.4542,-4.4634,-4.4684,-4.4778,-4.4811,-4.4882,-4.4853,-4.4886,-4.4894,-4.4902,-4.491,-4.469,-4.4895,-4.4894,-4.4894,-4.4893,-4.4893,0,-4.4224,-4.4256,-4.4327,-4.4403,-4.4465,-4.4439,-4.4497,-4.455,-4.4631,-4.468,-4.4743,-4.4838,-4.4914,-4.4945,-4.502,-4.507,-4.5063,-4.509,-4.5086,-4.5093,-4.4932,-4.4905,-4.5095,-4.5095,-4.5095,-4.5095,-4.5095,-4.5095,-4.4336,-4.4446,-4.4456,-4.4586,-4.4616,-4.4707,-4.4742,-4.4788,-4.4827,-4.4935,-4.4998,-4.5018,-4.506,-4.5137,-4.5206,-4.5213,-4.5242,-4.5274,-4.5277,-4.5125,-4.5105,-4.5085,-4.506,-4.528,-4.528,-4.5432,-4.5434,-4.5435]}]]